Skip Page Navigation
NASA JPL Caltech
NASA Logo - Jet Propulsion Laboratory + View the NASA Portal
+ Near-Earth Object (NEO) Program
Search JPL
JPL Home Earth Solar System Stars & Galaxies Technology
JPL Solar System Dynamics
BODIES ORBITS EPHEMERIDES TOOLS PHYSICAL DATA DISCOVERY FAQ SITE MAP
JPL Small-Body Database Browser
Search: [ help ]  
9203 Myrtus (1993 TM16)
Classification: Main-belt Asteroid          SPK-ID: 2009203
Ephemeris | Orbit Diagram | Orbital Elements | Physical Parameters | Discovery Circumstances | Close-Approach Data ]

[ hide orbit diagram ]
Orbit Diagram
Note: Make sure you have Java enabled on your browser to see the applet. This applet is provided as a 3D orbit visualization tool. The applet was implemented using 2-body methods, and hence should not be used for determining accurate long-term trajectories (over several years or decades) or planetary encounter circumstances. For accurate long-term ephemerides, please instead use our Horizons system.
Orbit Viewer

Additional Notes: the orbits shown in the applet are color coded. The planets are white lines, and the asteroid/comet is a blue line. The bright white line indicates the portion of the orbit that is above the ecliptic plane, and the darker portion is below the ecliptic plane. Likewise for the asteroid/comet orbit, the light blue indicates the portion above the ecliptic plane, and the dark blue the portion below the ecliptic plane.

Orbit Viewer applet originally written and kindly provided by Osamu Ajiki (AstroArts), and further modified by Ron Baalke (JPL).


Orbital Elements at Epoch 2456400.5 (2013-Apr-18.0) TDB
Reference: JPL 1 (heliocentric ecliptic J2000)
 Element Value Uncertainty (1-sigma)   Units 
e .1063029930081507 6.5209e-08  
a 3.164402357403592 3.9519e-08 AU
q 2.828016915729542 2.1408e-07 AU
i 2.574674982065805 6.3893e-06 deg
node 84.94912606256834 0.00013922 deg
peri 163.9369390573328 0.00014423 deg
M 282.5986301088098 4.3012e-05 deg
tp 2456842.560919097976
(2014-Jul-04.06091910)
0.0002487 JED
period 2056.060908211196
5.63
3.8516e-05
1.055e-07
d
yr
n .1750920892286238 3.28e-09 deg/d
Q 3.500787799077641 4.372e-08 AU
  Orbit Determination Parameters
   # obs. used (total)      1184  
   data-arc span      23139 days (63.35 yr)  
   first obs. used      1949-11-25  
   last obs. used      2013-04-02  
   planetary ephem.      DE405  
   SB-pert. ephem.      SB405-CPV-2  
   condition code      0  
   fit RMS      .53072  
   data source      ORB  
   producer      Otto Matic  
   solution date      2013-Apr-29 13:34:39  

Additional Information
 Earth MOID = 1.81443 AU 
 T_jup = 3.194 
[ show covariance matrix ]

Ephemeris | Orbit Diagram | Orbital Elements | Physical Parameters | Discovery Circumstances | Close-Approach Data ]

Physical Parameter Table
Parameter Symbol Value Units Sigma Reference Notes
absolute magnitude H 12.7 mag n/a PDS3 (MPC 32425)  

9203 Myrtus           Discovered 1993 Oct. 9 by E. W. Elst at the European Southern Observatory.
Named for Myrtaceae, the myrtle family of aromatic trees and shrubs, with more than 100 genera and nearly 4000 species. This family is typical of the Southern Hemisphere, where the Eucalyptus genus is prevalent. Myrtus communis (common myrtle) is a species native to the Mediterranean and is cultivated as far north as England.
NOTE: some special characters may not display properly (any characters within {} are an attempt to place the proper accent above a character)
Reference: 19990402/MPCPages.arcLast Updated: 2010-06-11

[ show close-approach data ]
Alternate Designations
 1993 TM16 = 1988 XX4 = 1989 YH2 
Ephemeris | Orbit Diagram | Orbital Elements | Physical Parameters | Discovery Circumstances | Close-Approach Data ]
ABOUT SSD CREDITS/AWARDS PRIVACY/COPYRIGHT GLOSSARY LINKS
FirstGov 2013-May-20 05:55 UT
(server date/time)  
NASA Home Page
Site Manager:   Donald K. Yeomans
Webmaster  Alan B. Chamberlin